CW4778 Auckland NZ current weather conditions

sailwx.info

Wind from 026 at 3 knots gusting 6

Air temperature 11.7° C
Dewpoint 10.9° C

Last reported at 2015-Aug-29 11:48 UTC.
Time now 2015-Aug-29 12:39 UTC

Location: S 36°52' E 174°44'.
View on Google Maps.

See reports from other nearby stations

  
Tides and Currents Weather Stations Pressure Air Temp Water Temp Dewpoint Dewpoint Depression Visibility Wind Speed Wind Dir Waves Ship Positions
date/time (UTC)wind fromknots sea level pressurealtimeterstation pressurevisibilityair tempwater tempwave heightnotes
2015-Aug-29 11:48 026 3 gusting 6 11.7
2015-Aug-29 11:38 052 3 gusting 6 11.7
2015-Aug-29 11:28 013 2 gusting 6 11.7
2015-Aug-29 11:18 007 2 gusting 6 11.7
2015-Aug-29 11:08 005 3 gusting 6 11.7
2015-Aug-29 10:48 003 2 gusting 6 11.7
2015-Aug-29 10:38 009 4 gusting 6 11.7
2015-Aug-29 10:18 357 4 gusting 6 11.7
2015-Aug-29 09:58 356 1 gusting 6 11.7
2015-Aug-29 09:48 009 4 gusting 7 11.7
2015-Aug-29 09:38 006 4 gusting 6 11.7
2015-Aug-29 09:18 009 4 gusting 6 12.2
2015-Aug-29 08:58 12.2
2015-Aug-29 08:48 357 3 gusting 6 12.2
2015-Aug-29 08:28 011 2 gusting 6 12.2
2015-Aug-29 08:18 029 1 gusting 4 12.2
2015-Aug-29 08:08 030 2 gusting 5 12.2
2015-Aug-29 07:58 033 1 gusting 5 12.2
2015-Aug-29 07:48 037 1 gusting 5 12.2
2015-Aug-29 07:38 034 2 gusting 6 12.2
2015-Aug-29 07:28 022 2 gusting 5 12.2
2015-Aug-29 07:18 030 2 gusting 5 12.2
2015-Aug-29 07:08 009 1 gusting 5 12.8
2015-Aug-29 06:58 019 1 gusting 5 12.8
2015-Aug-29 06:48 013 2 gusting 6 12.8
2015-Aug-29 06:38 004 2 gusting 6 12.8
2015-Aug-29 06:08 349 5 gusting 7 12.8
2015-Aug-29 05:58 010 6 gusting 7 13.3
2015-Aug-29 05:48 004 5 gusting 7 13.3
2015-Aug-29 05:38 049 5 gusting 7 13.3
2015-Aug-29 05:28 051 2 gusting 6 13.3
2015-Aug-29 05:18 341 1 gusting 2 13.9
2015-Aug-29 05:08 335 1 gusting 4 13.9
2015-Aug-29 04:58 333 0 gusting 5 13.9
2015-Aug-29 04:48 349 2 gusting 6 14.4
2015-Aug-29 04:38 314 2 gusting 6 14.4
2015-Aug-29 04:28 349 2 gusting 6 14.4
2015-Aug-29 04:18 355 4 gusting 6 14.4
2015-Aug-29 04:08 14.4
2015-Aug-29 03:58 022 2 gusting 6 14.4
2015-Aug-29 03:48 032 3 gusting 6 14.4
2015-Aug-29 03:38 027 4 gusting 6 14.4
2015-Aug-29 03:28 023 4 gusting 8 14.4
2015-Aug-29 03:18 024 6 gusting 8 14.4
2015-Aug-29 03:08 031 4 gusting 6 14.4
2015-Aug-29 02:58 033 6 gusting 8 14.4
2015-Aug-29 02:48 013 4 gusting 10 14.4
2015-Aug-29 02:38 044 5 gusting 11 14.4
2015-Aug-29 02:28 040 5 gusting 10 14.4
2015-Aug-29 02:18 041 6 gusting 8 14.4
2015-Aug-29 02:08 009 5 gusting 8 14.4
2015-Aug-29 01:58 051 6 gusting 11 13.9
2015-Aug-29 01:48 042 6 gusting 11 14.4
2015-Aug-29 01:38 031 5 gusting 10 15.0
2015-Aug-29 01:28 022 6 gusting 11 15.0
2015-Aug-29 01:18 011 5 gusting 11 15.0
2015-Aug-29 01:08 017 4 gusting 10 14.4
2015-Aug-29 00:58 351 5 gusting 10 14.4
2015-Aug-29 00:48 019 5 gusting 10 13.9
2015-Aug-29 00:38 018 6 gusting 8 14.4
2015-Aug-29 00:28 019 4 gusting 11 15.0
2015-Aug-29 00:18 043 5 gusting 11 15.6
2015-Aug-29 00:08 025 5 gusting 10 15.6
2015-Aug-28 23:58 033 6 gusting 10 14.4
2015-Aug-28 23:48 029 5 gusting 11 14.4
2015-Aug-28 23:38 028 4 gusting 10 14.4
2015-Aug-28 23:28 046 6 gusting 10 13.9
2015-Aug-28 23:18 041 7 gusting 11 13.9
2015-Aug-28 23:08 037 6 gusting 10 13.9
2015-Aug-28 22:58 054 4 gusting 6 13.9
2015-Aug-28 22:38 006 6 gusting 8 13.3
2015-Aug-28 22:28 035 4 gusting 7 12.8
2015-Aug-28 22:18 070 3 gusting 7 12.8
2015-Aug-28 22:08 015 6 gusting 8 12.8
2015-Aug-28 21:58 040 5 gusting 6 12.8
2015-Aug-28 21:48 023 2 gusting 6 12.8
2015-Aug-28 21:38 023 5 gusting 6 12.2
2015-Aug-28 21:28 019 3 gusting 6 12.2
2015-Aug-28 21:18 054 2 gusting 6 12.2
2015-Aug-28 21:08 017 2 gusting 4 11.7
2015-Aug-28 20:48 354 1 gusting 4 11.1
2015-Aug-28 20:38 351 1 gusting 4 11.1
2015-Aug-28 20:28 265 11.1
2015-Aug-28 20:18 264 10.0
2015-Aug-28 20:08 269 9.4
2015-Aug-28 19:58 268 8.9
2015-Aug-28 19:38 265 7.8
2015-Aug-28 19:28 268 7.8
2015-Aug-28 18:48 265 6.1
2015-Aug-28 18:28 266 5.0
2015-Aug-28 18:18 267 5.6
2015-Aug-28 17:58 265 5.6
2015-Aug-28 17:48 265 5.6
2015-Aug-28 17:38 266 5.6
2015-Aug-28 17:28 269 5.6
2015-Aug-28 17:18 265 5.6
2015-Aug-28 17:08 264 5.0
2015-Aug-28 16:48 269 5.6
2015-Aug-28 16:38 266 5.6
2015-Aug-28 16:28 268 6.1
2015-Aug-28 16:18 265 6.1
2015-Aug-28 16:08 267 5.6
2015-Aug-28 15:58 270 5.6
2015-Aug-28 15:48 265 5.6
2015-Aug-28 15:28 271 6.1
2015-Aug-28 15:18 265 6.1
2015-Aug-28 15:08 267 6.1
2015-Aug-28 14:58 272 6.7
2015-Aug-28 14:48 269 6.7
2015-Aug-28 14:38 267 6.7
2015-Aug-28 14:28 268 6.7
2015-Aug-28 14:08 268 6.7
2015-Aug-28 13:58 267 7.2
2015-Aug-28 13:48 265 7.2
2015-Aug-28 13:38 267 7.2
2015-Aug-28 13:18 314 6.7
2015-Aug-28 12:58 268 7.2
2015-Aug-28 12:48 268 7.2
2015-Aug-28 12:38 270 7.2
2015-Aug-28 12:28 266 7.2
2015-Aug-28 12:18 267 7.2
2015-Aug-28 11:58 264 7.2
2015-Aug-28 11:48 263 7.8
2015-Aug-28 11:38 263 7.8
2015-Aug-28 11:28 264 7.8
2015-Aug-28 11:18 265 7.8
2015-Aug-28 10:58 312 8.3
2015-Aug-28 10:48 269 8.3
2015-Aug-28 10:38 266 7.8
2015-Aug-28 10:28 268 7.8
2015-Aug-28 10:08 269 8.3
2015-Aug-28 09:58 274 8.3
2015-Aug-28 09:48 266 8.3
2015-Aug-28 09:38 274 8.9
2015-Aug-28 09:18 266 8.9
2015-Aug-28 09:08 264 8.9
2015-Aug-28 08:58 266 8.9
2015-Aug-28 08:48 267 8.9
2015-Aug-28 08:38 265 8.9
2015-Aug-28 08:28 264 9.4
2015-Aug-28 08:18 265 10.0
2015-Aug-28 08:08 343 0 gusting 2 9.4
2015-Aug-28 07:58 265 9.4
2015-Aug-28 07:48 267 9.4
2015-Aug-28 07:28 266 10.0
2015-Aug-28 07:18 273 10.0
2015-Aug-28 07:08 266 1 gusting 4 10.6
2015-Aug-28 06:38 033 1 gusting 4 11.1
2015-Aug-28 06:28 034 0 gusting 4 11.1
2015-Aug-28 06:18 036 2 gusting 5 11.1
2015-Aug-28 06:08 031 0 gusting 5 11.7
2015-Aug-28 05:58 040 2 gusting 6 11.7
2015-Aug-28 05:38 036 4 gusting 6 12.8
2015-Aug-28 05:28 036 4 gusting 7 12.8
2015-Aug-28 05:08 019 3 gusting 7 13.3
2015-Aug-28 04:58 023 5 gusting 10 13.3
2015-Aug-28 04:48 058 3 gusting 7 13.9
2015-Aug-28 04:38 032 5 gusting 7 13.9
2015-Aug-28 04:28 031 5 gusting 8 13.9
2015-Aug-28 04:18 030 3 gusting 6 13.9
2015-Aug-28 04:08 023 5 gusting 6 13.9
2015-Aug-28 03:58 046 4 gusting 8 14.4
2015-Aug-28 03:38 017 4 gusting 7 15.0
2015-Aug-28 03:28 020 5 gusting 7 15.0
2015-Aug-28 03:18 038 4 gusting 10 15.0
2015-Aug-28 03:08 001 6 gusting 10 15.0
2015-Aug-28 02:58 006 5 gusting 10 15.0
2015-Aug-28 02:48 036 5 gusting 11 15.0
2015-Aug-28 02:38 022 8 gusting 13 15.6
2015-Aug-28 02:18 019 7 gusting 12 15.6
2015-Aug-28 02:08 356 8 gusting 12 15.6
2015-Aug-28 01:58 15.6
2015-Aug-28 01:48 033 6 gusting 11 15.6
2015-Aug-28 01:38 352 6 gusting 8 16.1
2015-Aug-28 01:28 024 6 gusting 11 15.6
2015-Aug-28 01:08 043 5 gusting 10 16.7
2015-Aug-28 00:58 030 4 gusting 7 16.7
2015-Aug-28 00:48 021 4 gusting 8 16.7
2015-Aug-28 00:38 348 7 gusting 12 16.7
2015-Aug-28 00:28 029 5 gusting 8 16.7
2015-Aug-28 00:18 050 4 gusting 8 16.7
2015-Aug-28 00:08 029 5 gusting 8 17.2
2015-Aug-27 23:58 002 4 gusting 7 16.1
2015-Aug-27 23:48 018 4 gusting 6 17.2
2015-Aug-27 23:38 351 4 gusting 7 17.2
2015-Aug-27 23:18 047 1 gusting 6 16.7
2015-Aug-27 22:58 335 1 gusting 5 16.1
2015-Aug-27 22:48 355 3 gusting 6 15.6
2015-Aug-27 22:28 358 2 gusting 5 15.6
2015-Aug-27 22:18 013 2 gusting 6 15.6
2015-Aug-27 22:08 040 1 gusting 6 15.0
2015-Aug-27 21:58 012 1 gusting 4 14.4
2015-Aug-27 21:48 353 1 gusting 4 13.9
2015-Aug-27 21:28 353 1 gusting 4 13.3
2015-Aug-27 21:18 358 2 gusting 4 12.8
2015-Aug-27 21:08 13.3
2015-Aug-27 20:58 273 0 gusting 1 12.2
2015-Aug-27 20:28 227 10.0
2015-Aug-27 20:18 228 8.9
2015-Aug-27 20:08 228 8.3
2015-Aug-27 19:58 229 0 gusting 1 7.8
2015-Aug-27 19:48 226 7.8
2015-Aug-27 19:38 227 7.2
2015-Aug-27 19:28 228 6.7
2015-Aug-27 19:18 227 6.1
2015-Aug-27 19:08 232 5.6
2015-Aug-27 18:58 228 5.6
2015-Aug-27 18:48 227 5.6
2015-Aug-27 18:38 228 5.6
2015-Aug-27 18:28 227 5.6
2015-Aug-27 18:18 231 5.6
2015-Aug-27 17:58 228 6.1
2015-Aug-27 17:38 228 5.6
2015-Aug-27 17:28 228 6.1
2015-Aug-27 17:18 228 6.1
2015-Aug-27 17:08 229 6.7
2015-Aug-27 16:48 228 6.1
2015-Aug-27 16:38 227 6.7
2015-Aug-27 16:18 227 6.7
2015-Aug-27 16:08 229 0 gusting 1 7.2
2015-Aug-27 15:58 229 0 gusting 2 7.2
2015-Aug-27 15:48 232 0 gusting 2 7.2
2015-Aug-27 15:38 228 1 gusting 2 7.2
2015-Aug-27 15:28 228 1 gusting 2 6.7
2015-Aug-27 15:08 229 0 gusting 1 6.1
2015-Aug-27 14:48 230 2 gusting 4 6.1
2015-Aug-27 14:28 034 5.6
2015-Aug-27 14:18 033 6.1
2015-Aug-27 14:08 036 6.1
2015-Aug-27 13:58 036 6.1
2015-Aug-27 13:48 035 6.7
2015-Aug-27 13:38 036 6.1
2015-Aug-27 13:28 028 0 gusting 1 6.7
2015-Aug-27 13:18 033 6.7
2015-Aug-27 13:08 035 6.7
2015-Aug-27 12:18 035 7.2